Starlink 32841

operational
NORAD ID: 62865 Int'l Des: 2025-022 Owner: SPXS Country: US Constellation: starlink
LEOCIRCULAR

Starlink 32841について

説明を読み込み中...

リアルタイム位置

3D地球を読み込み中...

次回通過

高度履歴

Altitude vs Time

uPlot chart will show altitude changes over time

軌道要素

1 62865U 25022M 25351.15571046 .00022560 00000-0 77099-3 0 9993
2 62865 53.1576 152.9901 0001260 85.1912 274.9233 15.30221421 49259
Epoch: Dec 17, 2025 • Age: 14 hours

現在のステータス

高度 477.2 km
速度 7.63 km/s
衛星直下点 36.02°N, 174.33°W
打ち上げ日 Feb 2, 2025
運用期間 0.8 years
タイプ internet

技術仕様

分類 Payload
質量 730.00 kg
乾燥質量 700.00 kg
総質量 730.00 kg
長さ 0.30 m
直径 4.10 m
スパン 29.00 m
形状 Box + pan
製造者 SPXS
バスタイプ Starlink V2M
フェーズステータス In Orbit
所有者/国 SPXS/US

大規模コンステレーション

Loading constellations...